DECAYED

STARLINK-2115, 47394 (Decayed)

Orbit data source: Space-Track

STARLINK-2115, 47394 was a payload satellite owned by SpaceX/Seattle (US) in LEO that was launched on Wed, 20 Jan 2021 UTC via an FALCON 9 launch vehicle from the Air Force Eastern Test Range (AFETR). Payload-class satellites include a variety of spacecraft equipped with specific instruments for various scientific and technological missions. These include communications satellites like Starlink; space stations such as the ISS; scientific satellites like the Hubble; Earth observation satellites from companies like Planet Labs, Umbra, and HawkEye 360; GPS; miniature CubeSats for education and research; and military/defense satellites.

Not visible in the next 10 days
Identifier
47394, 2021-005AX
Orbit
Decayed
Country
Flag of USUS
Related business
Manufacturer
SpaceX/Seattle
Mission
Decayed Commercial Communications
Bus & Motor
STARLINK, Unknown motor
Mass
260 kg wet, ~248 kg dry
Launch date (UTC)
2021-01-20 (5 years ago)
Launch vehicle
FALCON 9
Launch site
Air Force Eastern Test Range (AFETR)
Object type
Payload
Rocket body
Debris
Shape & HBR
Box + 1 Pan, 10.1 m
Radar Cross Section
13.562 m², Large (>1 m²)

Expand to show TLE details & history
Last TLE update: 1 year ago

TLE from 1 year ago
0 STARLINK-2115
1 47394U 21005AX  24365.86373853  .29955223  12495-4  92973-3 0  9993
2 47394  53.0357 150.5978 0003439 265.5400 217.6134 16.44950670219084
Epoch: 2024-12-30T20:43Z
TLE epoch observation values (Epoch: 2024-12-30T20:43:47.008Z)
Latitude
42.14055°
Longitude
-122.74122°
Altitude
158.454 km
Speed
7.816 km/s
True Right ascension
19h 11m 56s
True Declination
41° 57' 14"
Sunlit
Object was in daylight at epoch
Visualization orbit readout
Latitude
Unknown
Longitude
Unknown
Altitude
Unknown
Speed
Unknown
Apparent Right ascension
Unknown
Apparent Declination
Unknown
Sunlit
N/A
Visualization observer readout
Local Sidereal Time
21:28:44
Azimuth
Unknown
Elevation
Unknown
Doppler factor
Unknown
Orbital elements
Apogee altitude
155.202 km
Perigee altitude
150.71 km
Semi-major axis
6,531.093 km
Eccentricity
0.00034
Inclination
53.0357°
RAAN
150.5978°
Arg. of periapsis
265.54°
True anomaly
217.58936°
Mean anomaly
217.6134°
Eccentric anomaly
217.60138°
Mean motion
4.11211 °/min
Orbital period
87.55 mins
BSTAR
0.00092973
Loading maneuver chart data...
Computing Atmospheric mass density...

Documentation

Showing up to 5 results
|